Year,Month,Day,Hour,Minute,Value (Times are PST for temperature in C)
2017,01,11,00,00,-5.10
2017,01,11,00,01,-5.20
2017,01,11,00,02,-5.20
2017,01,11,00,03,-5.20
2017,01,11,00,04,-5.10
2017,01,11,00,05,-5.10
2017,01,11,00,06,-5.10
2017,01,11,00,07,-5.00
2017,01,11,00,08,-5.00
2017,01,11,00,09,-4.90
2017,01,11,00,10,-5.00
2017,01,11,00,11,-5.00
2017,01,11,00,12,-5.00
2017,01,11,00,13,-4.90
2017,01,11,00,14,-4.90
2017,01,11,00,15,-4.80
2017,01,11,00,16,-4.70
2017,01,11,00,17,-4.50
2017,01,11,00,18,-4.40
2017,01,11,00,19,-4.40
2017,01,11,00,20,-4.30
2017,01,11,00,21,-4.30
2017,01,11,00,22,-4.30
2017,01,11,00,23,-4.30
2017,01,11,00,24,-4.30
2017,01,11,00,25,-4.20
2017,01,11,00,26,-4.20
2017,01,11,00,27,-4.20
2017,01,11,00,28,-4.20
2017,01,11,00,29,-4.20
2017,01,11,00,30,-4.20
2017,01,11,00,31,-4.20
2017,01,11,00,32,-4.20
2017,01,11,00,33,-4.20
2017,01,11,00,34,-4.20
2017,01,11,00,35,-4.20
2017,01,11,00,36,-4.20
2017,01,11,00,37,-4.20
2017,01,11,00,38,-4.20
2017,01,11,00,39,-4.20
2017,01,11,00,40,-4.20
2017,01,11,00,41,-4.30
2017,01,11,00,42,-4.30
2017,01,11,00,43,-4.30
2017,01,11,00,44,-4.30
2017,01,11,00,45,-4.30
2017,01,11,00,46,-4.30
2017,01,11,00,47,-4.30
2017,01,11,00,48,-4.30
2017,01,11,00,49,-4.30
2017,01,11,00,50,-4.30
2017,01,11,00,51,-4.30
2017,01,11,00,52,-4.30
2017,01,11,00,53,-4.20
2017,01,11,00,54,-4.20
2017,01,11,00,55,-4.20
2017,01,11,00,56,-4.20
2017,01,11,00,57,-4.20
2017,01,11,00,58,-4.20
2017,01,11,00,59,-4.20
2017,01,11,01,00,-4.20
2017,01,11,01,01,-4.20
2017,01,11,01,02,-4.20
2017,01,11,01,03,-4.20
2017,01,11,01,04,-4.20
2017,01,11,01,05,-4.20
2017,01,11,01,06,-4.30
2017,01,11,01,07,-4.30
2017,01,11,01,08,-4.30
2017,01,11,01,09,-4.30
2017,01,11,01,10,-4.30
2017,01,11,01,11,-4.20
2017,01,11,01,12,-4.20
2017,01,11,01,13,-4.20
2017,01,11,01,14,-4.20
2017,01,11,01,15,-4.20
2017,01,11,01,16,-4.20
2017,01,11,01,17,-4.20
2017,01,11,01,18,-4.20
2017,01,11,01,19,-4.20
2017,01,11,01,20,-4.20
2017,01,11,01,21,-4.20
2017,01,11,01,22,-4.20
2017,01,11,01,23,-4.20
2017,01,11,01,24,-4.10
2017,01,11,01,25,-4.10
2017,01,11,01,26,-4.20
2017,01,11,01,27,-4.20
2017,01,11,01,28,-4.30
2017,01,11,01,29,-4.30
2017,01,11,01,30,-4.30
2017,01,11,01,31,-4.30
2017,01,11,01,32,-4.30
2017,01,11,01,33,-4.30
2017,01,11,01,34,-4.30
2017,01,11,01,35,-4.20
2017,01,11,01,36,-4.20
2017,01,11,01,37,-4.20
2017,01,11,01,38,-4.20
2017,01,11,01,39,-4.30
2017,01,11,01,40,-4.40
2017,01,11,01,41,-4.50
2017,01,11,01,42,-4.50
2017,01,11,01,43,-4.60
2017,01,11,01,44,-4.60
2017,01,11,01,45,-4.60
2017,01,11,01,46,-4.60
2017,01,11,01,47,-4.60
2017,01,11,01,48,-4.60
2017,01,11,01,49,-4.70
2017,01,11,01,50,-4.70
2017,01,11,01,51,-4.80
2017,01,11,01,52,-5.00
2017,01,11,01,53,-5.10
2017,01,11,01,54,-5.20
2017,01,11,01,55,-5.30
2017,01,11,01,56,-5.40
2017,01,11,01,57,-5.50
2017,01,11,01,58,-5.60
2017,01,11,01,59,-5.60
2017,01,11,02,00,-5.70
2017,01,11,02,01,-5.70
2017,01,11,02,02,-5.70
2017,01,11,02,03,-5.80
2017,01,11,02,04,-5.80
2017,01,11,02,05,-5.80
2017,01,11,02,06,-5.80
2017,01,11,02,07,-5.80
2017,01,11,02,08,-5.90
2017,01,11,02,09,-5.90
2017,01,11,02,10,-5.90
2017,01,11,02,11,-5.90
2017,01,11,02,12,-5.90
2017,01,11,02,13,-5.90
2017,01,11,02,14,-6.00
2017,01,11,02,15,-6.00
2017,01,11,02,16,-5.90
2017,01,11,02,17,-5.90
2017,01,11,02,18,-5.90
2017,01,11,02,19,-5.90
2017,01,11,02,20,-5.90
2017,01,11,02,21,-5.90
2017,01,11,02,22,-5.90
2017,01,11,02,23,-5.90
2017,01,11,02,24,-5.90
2017,01,11,02,25,-5.90
2017,01,11,02,26,-5.90
2017,01,11,02,27,-5.80
2017,01,11,02,28,-5.80
2017,01,11,02,29,-5.80
2017,01,11,02,30,-5.80
2017,01,11,02,31,-5.80
2017,01,11,02,32,-5.80
2017,01,11,02,33,-5.80
2017,01,11,02,34,-5.80
2017,01,11,02,35,-5.80
2017,01,11,02,36,-5.80
2017,01,11,02,37,-5.80
2017,01,11,02,38,-5.80
2017,01,11,02,39,-5.80
2017,01,11,02,40,-5.90
2017,01,11,02,41,-5.90
2017,01,11,02,42,-5.90
2017,01,11,02,43,-6.00
2017,01,11,02,44,-6.00
2017,01,11,02,45,-6.10
2017,01,11,02,46,-6.10
2017,01,11,02,47,-6.00
2017,01,11,02,48,-6.00
2017,01,11,02,49,-6.00
2017,01,11,02,50,-6.10
2017,01,11,02,51,-6.10
2017,01,11,02,52,-6.10
2017,01,11,02,53,-6.10
2017,01,11,02,54,-6.00
2017,01,11,02,55,-6.00
2017,01,11,02,56,-6.00
2017,01,11,02,57,-6.00
2017,01,11,02,58,-6.00
2017,01,11,02,59,-6.00
2017,01,11,03,00,-6.00
2017,01,11,03,01,-6.00
2017,01,11,03,02,-6.10
2017,01,11,03,03,-6.10
2017,01,11,03,04,-6.00
2017,01,11,03,05,-6.00
2017,01,11,03,06,-6.00
2017,01,11,03,07,-6.00
2017,01,11,03,08,-6.00
2017,01,11,03,09,-6.00
2017,01,11,03,10,-5.90
2017,01,11,03,11,-5.90
2017,01,11,03,12,-5.80
2017,01,11,03,13,-5.80
2017,01,11,03,14,-5.70
2017,01,11,03,15,-5.70
2017,01,11,03,16,-5.70
2017,01,11,03,17,-5.70
2017,01,11,03,18,-5.70
2017,01,11,03,19,-5.70
2017,01,11,03,20,-5.70
2017,01,11,03,21,-5.80
2017,01,11,03,22,-5.80
2017,01,11,03,23,-5.80
2017,01,11,03,24,-5.80
2017,01,11,03,25,-5.80
2017,01,11,03,26,-5.80
2017,01,11,03,27,-5.80
2017,01,11,03,28,-5.80
2017,01,11,03,29,-5.80
2017,01,11,03,30,-5.90
2017,01,11,03,31,-5.90
2017,01,11,03,32,-5.90
2017,01,11,03,33,-6.00
2017,01,11,03,34,-6.00
2017,01,11,03,35,-6.10
2017,01,11,03,36,-6.20
2017,01,11,03,37,-6.20
2017,01,11,03,38,-6.20
2017,01,11,03,39,-6.20
2017,01,11,03,40,-6.20
2017,01,11,03,41,-6.20
2017,01,11,03,42,-6.20
2017,01,11,03,43,-6.10
2017,01,11,03,44,-6.10
2017,01,11,03,45,-6.00
2017,01,11,03,46,-6.00
2017,01,11,03,47,-6.00
2017,01,11,03,48,-6.10
2017,01,11,03,49,-6.10
2017,01,11,03,50,-6.10
2017,01,11,03,51,-6.10
2017,01,11,03,52,-6.10
2017,01,11,03,53,-6.20
2017,01,11,03,54,-6.30
2017,01,11,03,55,-6.30
2017,01,11,03,56,-6.40
2017,01,11,03,57,-6.40
2017,01,11,03,58,-6.40
2017,01,11,03,59,-6.50
2017,01,11,04,00,-6.50
2017,01,11,04,01,-6.60
2017,01,11,04,02,-6.60
2017,01,11,04,03,-6.70
2017,01,11,04,04,-6.70
2017,01,11,04,05,-6.70
2017,01,11,04,06,-6.70
2017,01,11,04,07,-6.70
2017,01,11,04,08,-6.80
2017,01,11,04,09,-6.80
2017,01,11,04,10,-6.80
2017,01,11,04,11,-6.80
2017,01,11,04,12,-6.80
2017,01,11,04,13,-6.80
2017,01,11,04,14,-6.80
2017,01,11,04,15,-6.80
2017,01,11,04,16,-6.90
2017,01,11,04,17,-6.90
2017,01,11,04,18,-6.90
2017,01,11,04,19,-7.00
2017,01,11,04,20,-7.00
2017,01,11,04,21,-7.10
2017,01,11,04,22,-7.10
2017,01,11,04,23,-7.10
2017,01,11,04,24,-7.10
2017,01,11,04,25,-7.20
2017,01,11,04,26,-7.20
2017,01,11,04,27,-7.30
2017,01,11,04,28,-7.30
2017,01,11,04,29,-7.30
2017,01,11,04,30,-7.40
2017,01,11,04,31,-7.40
2017,01,11,04,32,-7.40
2017,01,11,04,33,-7.40
2017,01,11,04,34,-7.40
2017,01,11,04,35,-7.50
2017,01,11,04,36,-7.50
2017,01,11,04,37,-7.50
2017,01,11,04,38,-7.40
2017,01,11,04,39,-7.40
2017,01,11,04,40,-7.30
2017,01,11,04,41,-7.30
2017,01,11,04,42,-7.20
2017,01,11,04,43,-7.20
2017,01,11,04,44,-7.10
2017,01,11,04,45,-7.10
2017,01,11,04,46,-7.10
2017,01,11,04,47,-7.00
2017,01,11,04,48,-7.00
2017,01,11,04,49,-6.90
2017,01,11,04,50,-6.90
2017,01,11,04,51,-6.90
2017,01,11,04,52,-7.00
2017,01,11,04,53,-7.10
2017,01,11,04,54,-7.10
2017,01,11,04,55,-7.00
2017,01,11,04,56,-7.00
2017,01,11,04,57,-7.00
2017,01,11,04,58,-7.10
2017,01,11,04,59,-7.10
2017,01,11,05,00,-7.20
2017,01,11,05,01,-7.20
2017,01,11,05,02,-7.20
2017,01,11,05,03,-7.20
2017,01,11,05,04,-7.20
2017,01,11,05,05,-7.20
2017,01,11,05,06,-7.30
2017,01,11,05,07,-7.30
2017,01,11,05,08,-7.40
2017,01,11,05,09,-7.40
2017,01,11,05,10,-7.40
2017,01,11,05,11,-7.40
2017,01,11,05,12,-7.40
2017,01,11,05,13,-7.50
2017,01,11,05,14,-7.50
2017,01,11,05,15,-7.50
2017,01,11,05,16,-7.60
2017,01,11,05,17,-7.60
2017,01,11,05,18,-7.60
2017,01,11,05,19,-7.50
2017,01,11,05,20,-7.50
2017,01,11,05,21,-7.50
2017,01,11,05,22,-7.50
2017,01,11,05,23,-7.60
2017,01,11,05,24,-7.60
2017,01,11,05,25,-7.60
2017,01,11,05,26,-7.60
2017,01,11,05,27,-7.60
2017,01,11,05,28,-7.70
2017,01,11,05,29,-7.70
2017,01,11,05,30,-7.70
2017,01,11,05,31,-7.70
2017,01,11,05,32,-7.80
2017,01,11,05,33,-7.80
2017,01,11,05,34,-7.80
2017,01,11,05,35,-7.80
2017,01,11,05,36,-7.70
2017,01,11,05,37,-7.60
2017,01,11,05,38,-7.60
2017,01,11,05,39,-7.60
2017,01,11,05,40,-7.60
2017,01,11,05,41,-7.50
2017,01,11,05,42,-7.50
2017,01,11,05,43,-7.50
2017,01,11,05,44,-7.50
2017,01,11,05,45,-7.50
2017,01,11,05,46,-7.60
2017,01,11,05,47,-7.60
2017,01,11,05,48,-7.70
2017,01,11,05,49,-7.70
2017,01,11,05,50,-7.60
2017,01,11,05,51,-7.60
2017,01,11,05,52,-7.50
2017,01,11,05,53,-7.50
2017,01,11,05,54,-7.40
2017,01,11,05,55,-7.40
2017,01,11,05,56,-7.40
2017,01,11,05,57,-7.40
2017,01,11,05,58,-7.30
2017,01,11,05,59,-7.30
2017,01,11,06,00,-7.30
2017,01,11,06,01,-7.30
2017,01,11,06,02,-7.20
2017,01,11,06,03,-7.20
2017,01,11,06,04,-7.20
2017,01,11,06,05,-7.30
2017,01,11,06,06,-7.30
2017,01,11,06,07,-7.30
2017,01,11,06,08,-7.30
2017,01,11,06,09,-7.20
2017,01,11,06,10,-7.20
2017,01,11,06,11,-7.10
2017,01,11,06,12,-7.10
2017,01,11,06,13,-7.00
2017,01,11,06,14,-6.90
2017,01,11,06,15,-6.70
2017,01,11,06,16,-6.70
2017,01,11,06,17,-6.60
2017,01,11,06,18,-6.70
2017,01,11,06,19,-6.70
2017,01,11,06,20,-6.60
2017,01,11,06,21,-6.60
2017,01,11,06,22,-6.60
2017,01,11,06,23,-6.60
2017,01,11,06,24,-6.60
2017,01,11,06,25,-6.70
2017,01,11,06,26,-6.80
2017,01,11,06,27,-6.90
2017,01,11,06,28,-7.00
2017,01,11,06,29,-7.10
2017,01,11,06,30,-7.30
2017,01,11,06,31,-7.30
2017,01,11,06,32,-7.40
2017,01,11,06,33,-7.50
2017,01,11,06,34,-7.50
2017,01,11,06,35,-7.50
2017,01,11,06,36,-7.50
2017,01,11,06,37,-7.40
2017,01,11,06,38,-7.30
2017,01,11,06,39,-7.20
2017,01,11,06,40,-7.10
2017,01,11,06,41,-7.10
2017,01,11,06,42,-7.00
2017,01,11,06,43,-6.90
2017,01,11,06,44,-6.80
2017,01,11,06,45,-6.80
2017,01,11,06,46,-6.80
2017,01,11,06,47,-6.80
2017,01,11,06,48,-6.80
2017,01,11,06,49,-6.70
2017,01,11,06,50,-6.70
2017,01,11,06,51,-6.70
2017,01,11,06,52,-6.70
2017,01,11,06,53,-6.70
2017,01,11,06,54,-6.80
2017,01,11,06,55,-6.80
2017,01,11,06,56,-6.80
2017,01,11,06,57,-6.90
2017,01,11,06,58,-6.90
2017,01,11,06,59,-6.90
2017,01,11,07,00,-6.90
2017,01,11,07,01,-6.90
2017,01,11,07,02,-6.90
2017,01,11,07,03,-6.90
2017,01,11,07,04,-6.90
2017,01,11,07,05,-6.90
2017,01,11,07,06,-7.10
2017,01,11,07,07,-7.20
2017,01,11,07,08,-7.30
2017,01,11,07,09,-7.40
2017,01,11,07,10,-7.50
2017,01,11,07,11,-7.50
2017,01,11,07,12,-7.50
2017,01,11,07,13,-7.50
2017,01,11,07,14,-7.50
2017,01,11,07,15,-7.40
2017,01,11,07,16,-7.50
2017,01,11,07,17,-7.50
2017,01,11,07,18,-7.60
2017,01,11,07,19,-7.70
2017,01,11,07,20,-7.70
2017,01,11,07,21,-7.70
2017,01,11,07,22,-7.70
2017,01,11,07,23,-7.70
2017,01,11,07,24,-7.70
2017,01,11,07,25,-7.60
2017,01,11,07,26,-7.60
2017,01,11,07,27,-7.70
2017,01,11,07,28,-7.60
2017,01,11,07,29,-7.60
2017,01,11,07,30,-7.60
2017,01,11,07,31,-7.60
2017,01,11,07,32,-7.50
2017,01,11,07,33,-7.40
2017,01,11,07,34,-7.40
2017,01,11,07,35,-7.40
2017,01,11,07,36,-7.40
2017,01,11,07,37,-7.50
2017,01,11,07,38,-7.40
2017,01,11,07,39,-7.40
2017,01,11,07,40,-7.30
2017,01,11,07,41,-7.20
2017,01,11,07,42,-7.20
2017,01,11,07,43,-7.10
2017,01,11,07,44,-7.10
2017,01,11,07,45,-7.10
2017,01,11,07,46,-7.10
2017,01,11,07,47,-7.20
2017,01,11,07,48,-7.30
2017,01,11,07,49,-7.30
2017,01,11,07,50,-7.40
2017,01,11,07,51,-7.40
2017,01,11,07,52,-7.40
2017,01,11,07,53,-7.40
2017,01,11,07,54,-7.40
2017,01,11,07,55,-7.30
2017,01,11,07,56,-7.30
2017,01,11,07,57,-7.30
2017,01,11,07,58,-7.30
2017,01,11,07,59,-7.30
2017,01,11,08,00,-7.30
2017,01,11,08,01,-7.40
2017,01,11,08,02,-7.40
2017,01,11,08,03,-7.40
2017,01,11,08,04,-7.50
2017,01,11,08,05,-7.50
2017,01,11,08,06,-7.60
2017,01,11,08,07,-7.60
2017,01,11,08,08,-7.60
2017,01,11,08,09,-7.50
2017,01,11,08,10,-7.40
2017,01,11,08,11,-7.40
2017,01,11,08,12,-7.30
2017,01,11,08,13,-7.30
2017,01,11,08,14,-7.20
2017,01,11,08,15,-7.10
2017,01,11,08,16,-7.00
2017,01,11,08,17,-7.00
2017,01,11,08,18,-7.00
2017,01,11,08,19,-7.10
2017,01,11,08,20,-7.20
2017,01,11,08,21,-7.20
2017,01,11,08,22,-7.30
2017,01,11,08,23,-7.40
2017,01,11,08,24,-7.40
2017,01,11,08,25,-7.40
2017,01,11,08,26,-7.40
2017,01,11,08,27,-7.40
2017,01,11,08,28,-7.40
2017,01,11,08,29,-7.50
2017,01,11,08,30,-7.50
2017,01,11,08,31,-7.50
2017,01,11,08,32,-7.60
2017,01,11,08,33,-7.60
2017,01,11,08,34,-7.60
2017,01,11,08,35,-7.60
2017,01,11,08,36,-7.70
2017,01,11,08,37,-7.70
2017,01,11,08,38,-7.70
2017,01,11,08,39,-7.60
2017,01,11,08,40,-7.60
2017,01,11,08,41,-7.50
2017,01,11,08,42,-7.40
2017,01,11,08,43,-7.40
2017,01,11,08,44,-7.30
2017,01,11,08,45,-7.30
2017,01,11,08,46,-7.30
2017,01,11,08,47,-7.30
2017,01,11,08,48,-7.30
2017,01,11,08,49,-7.30
2017,01,11,08,50,-7.30
2017,01,11,08,51,-7.30
2017,01,11,08,52,-7.30
2017,01,11,08,53,-7.30
2017,01,11,08,54,-7.30
2017,01,11,08,55,-7.30
2017,01,11,08,56,-7.30
2017,01,11,08,57,-7.20
2017,01,11,08,58,-7.20
2017,01,11,08,59,-7.20
2017,01,11,09,00,-7.20
2017,01,11,09,01,-7.20
2017,01,11,09,02,-7.20
2017,01,11,09,03,-7.20
2017,01,11,09,04,-7.20
2017,01,11,09,05,-7.20
2017,01,11,09,06,-7.20
2017,01,11,09,07,-7.20
2017,01,11,09,08,-7.20
2017,01,11,09,09,-7.10
2017,01,11,09,10,-7.10
2017,01,11,09,11,-7.00
2017,01,11,09,12,-7.00
2017,01,11,09,13,-6.90
2017,01,11,09,14,-6.90
2017,01,11,09,15,-6.90
2017,01,11,09,16,-6.90
2017,01,11,09,17,-6.80
2017,01,11,09,18,-6.80
2017,01,11,09,19,-6.80
2017,01,11,09,20,-6.70
2017,01,11,09,21,-6.60
2017,01,11,09,22,-6.60
2017,01,11,09,23,-6.50
2017,01,11,09,24,-6.50
2017,01,11,09,25,-6.40
2017,01,11,09,26,-6.30
2017,01,11,09,27,-6.20
2017,01,11,09,28,-6.10
2017,01,11,09,29,-6.00
2017,01,11,09,30,-5.90
2017,01,11,09,31,-5.80
2017,01,11,09,32,-5.70
2017,01,11,09,33,-5.60
2017,01,11,09,34,-5.50
2017,01,11,09,35,-5.50
2017,01,11,09,36,-5.40
2017,01,11,09,37,-5.30
2017,01,11,09,38,-5.20
2017,01,11,09,39,-5.10
2017,01,11,09,40,-5.00
2017,01,11,09,41,-5.00
2017,01,11,09,42,-4.90
2017,01,11,09,43,-4.90
2017,01,11,09,44,-4.80
2017,01,11,09,45,-4.70
2017,01,11,09,46,-4.70
2017,01,11,09,47,-4.60
2017,01,11,09,48,-4.60
2017,01,11,09,49,-4.60
2017,01,11,09,50,-4.60
2017,01,11,09,51,-4.60
2017,01,11,09,52,-4.60
2017,01,11,09,53,-4.60
2017,01,11,09,54,-4.60
2017,01,11,09,55,-4.70
2017,01,11,09,56,-4.70
2017,01,11,09,57,-4.70
2017,01,11,09,58,-4.70
2017,01,11,09,59,-4.70
2017,01,11,10,00,-4.70
2017,01,11,10,01,-4.70
2017,01,11,10,02,-4.60
2017,01,11,10,03,-4.50
2017,01,11,10,04,-4.50
2017,01,11,10,05,-4.40
2017,01,11,10,06,-4.30
2017,01,11,10,07,-4.30
2017,01,11,10,08,-4.20
2017,01,11,10,09,-4.10
2017,01,11,10,10,-4.00
2017,01,11,10,11,-4.00
2017,01,11,10,12,-3.90
2017,01,11,10,13,-3.90
2017,01,11,10,14,-3.90
2017,01,11,10,15,-3.90
2017,01,11,10,16,-3.80
2017,01,11,10,17,-3.80
2017,01,11,10,18,-3.80
2017,01,11,10,19,-3.80
2017,01,11,10,20,-3.80
2017,01,11,10,21,-3.80
2017,01,11,10,22,-3.80
2017,01,11,10,23,-3.80
2017,01,11,10,24,-3.70
2017,01,11,10,25,-3.70
2017,01,11,10,26,-3.60
2017,01,11,10,27,-3.60
2017,01,11,10,28,-3.50
2017,01,11,10,29,-3.40
2017,01,11,10,30,-3.30
2017,01,11,10,31,-3.30
2017,01,11,10,32,-3.20
2017,01,11,10,33,-3.10
2017,01,11,10,34,-3.10
2017,01,11,10,35,-3.00
2017,01,11,10,36,-2.90
2017,01,11,10,37,-2.80
2017,01,11,10,38,-2.80
2017,01,11,10,39,-2.70
2017,01,11,10,40,-2.60
2017,01,11,10,41,-2.50
2017,01,11,10,42,-2.40
2017,01,11,10,43,-2.30
2017,01,11,10,44,-2.30
2017,01,11,10,45,-2.20
2017,01,11,10,46,-2.20
2017,01,11,10,47,-2.20
2017,01,11,10,48,-2.20
2017,01,11,10,49,-2.20
2017,01,11,10,50,-2.20
2017,01,11,10,51,-2.20
2017,01,11,10,52,-2.20
2017,01,11,10,53,-2.10
2017,01,11,10,54,-2.10
2017,01,11,10,55,-2.10
2017,01,11,10,56,-2.00
2017,01,11,10,57,-2.00
2017,01,11,10,58,-1.90
2017,01,11,10,59,-1.90
2017,01,11,11,00,-1.80
2017,01,11,11,01,-1.70
2017,01,11,11,02,-1.70
2017,01,11,11,03,-1.60
2017,01,11,11,04,-1.50
2017,01,11,11,05,-1.40
2017,01,11,11,06,-1.40
2017,01,11,11,07,-1.40
2017,01,11,11,08,-1.30
2017,01,11,11,09,-1.30
2017,01,11,11,10,-1.30
2017,01,11,11,11,-1.30
2017,01,11,11,12,-1.30
2017,01,11,11,13,-1.30
2017,01,11,11,14,-1.20
2017,01,11,11,15,-1.20
2017,01,11,11,16,-1.10
2017,01,11,11,17,-1.00
2017,01,11,11,18,-0.90
2017,01,11,11,19,-0.80
2017,01,11,11,20,-0.70
2017,01,11,11,21,-0.70
2017,01,11,11,22,-0.60
2017,01,11,11,23,-0.50
2017,01,11,11,24,-0.50
2017,01,11,11,25,-0.50
2017,01,11,11,26,-0.50
2017,01,11,11,27,-0.40
2017,01,11,11,28,-0.40
2017,01,11,11,29,-0.30
2017,01,11,11,30,-0.30
2017,01,11,11,31,-0.30
2017,01,11,11,32,-0.30
2017,01,11,11,33,-0.20
2017,01,11,11,34,-0.20
2017,01,11,11,35,-0.10
2017,01,11,11,36,-0.10
2017,01,11,11,37,0.00
2017,01,11,11,38,0.00
2017,01,11,11,39,0.10
2017,01,11,11,40,0.10
2017,01,11,11,41,0.20
2017,01,11,11,42,0.20
2017,01,11,11,43,0.30
2017,01,11,11,44,0.30
2017,01,11,11,45,0.30
2017,01,11,11,46,0.30
2017,01,11,11,47,0.30
2017,01,11,11,48,0.30
2017,01,11,11,49,0.30
2017,01,11,11,50,0.30
2017,01,11,11,51,0.30
2017,01,11,11,52,0.30
2017,01,11,11,53,0.30
2017,01,11,11,54,0.40
2017,01,11,11,55,0.40
2017,01,11,11,56,0.50
2017,01,11,11,57,0.50
2017,01,11,11,58,0.50
2017,01,11,11,59,0.60
2017,01,11,12,00,0.60
2017,01,11,12,01,0.60
2017,01,11,12,02,0.60
2017,01,11,12,03,0.60
2017,01,11,12,04,0.60
2017,01,11,12,05,0.60
2017,01,11,12,06,0.60
2017,01,11,12,07,0.60
2017,01,11,12,08,0.70
2017,01,11,12,09,0.70
2017,01,11,12,10,0.70
2017,01,11,12,11,0.80
2017,01,11,12,12,0.80
2017,01,11,12,13,0.90
2017,01,11,12,14,0.90
2017,01,11,12,15,1.00
2017,01,11,12,16,1.10
2017,01,11,12,17,1.10
2017,01,11,12,18,1.20
2017,01,11,12,19,1.30
2017,01,11,12,20,1.30
2017,01,11,12,21,1.30
2017,01,11,12,22,1.40
2017,01,11,12,23,1.40
2017,01,11,12,24,1.50
2017,01,11,12,25,1.60
2017,01,11,12,26,1.60
2017,01,11,12,27,1.60
2017,01,11,12,28,1.50
2017,01,11,12,29,1.50
2017,01,11,12,30,1.40
2017,01,11,12,31,1.40
2017,01,11,12,32,1.30
2017,01,11,12,33,1.30
2017,01,11,12,34,1.20
2017,01,11,12,35,1.20
2017,01,11,12,36,1.20
2017,01,11,12,37,1.10
2017,01,11,12,38,1.10
2017,01,11,12,39,1.10
2017,01,11,12,40,1.00
2017,01,11,12,41,1.00
2017,01,11,12,42,1.00
2017,01,11,12,43,1.00
2017,01,11,12,44,1.00
2017,01,11,12,45,1.10
2017,01,11,12,46,1.10
2017,01,11,12,47,1.10
2017,01,11,12,48,1.10
2017,01,11,12,49,1.10
2017,01,11,12,50,1.10
2017,01,11,12,51,1.10
2017,01,11,12,52,1.10
2017,01,11,12,53,1.10
2017,01,11,12,54,1.10
2017,01,11,12,55,1.10
2017,01,11,12,56,1.10
2017,01,11,12,57,1.10
2017,01,11,12,58,1.10
2017,01,11,12,59,1.10
2017,01,11,13,00,1.10
2017,01,11,13,01,1.10
2017,01,11,13,02,1.10
2017,01,11,13,03,1.10
2017,01,11,13,04,1.20
2017,01,11,13,05,1.20
2017,01,11,13,06,1.20
2017,01,11,13,07,1.20
2017,01,11,13,08,1.20
2017,01,11,13,09,1.20
2017,01,11,13,10,1.30
2017,01,11,13,11,1.30
2017,01,11,13,12,1.40
2017,01,11,13,13,1.40
2017,01,11,13,14,1.40
2017,01,11,13,15,1.40
2017,01,11,13,16,1.50
2017,01,11,13,17,1.50
2017,01,11,13,18,1.50
2017,01,11,13,19,1.50
2017,01,11,13,20,1.50
2017,01,11,13,21,1.60
2017,01,11,13,22,1.60
2017,01,11,13,23,1.50
2017,01,11,13,24,1.50
2017,01,11,13,25,1.50
2017,01,11,13,26,1.50
2017,01,11,13,27,1.50
2017,01,11,13,28,1.50
2017,01,11,13,29,1.50
2017,01,11,13,30,1.50
2017,01,11,13,31,1.50
2017,01,11,13,32,1.50
2017,01,11,13,33,1.60
2017,01,11,13,34,1.60
2017,01,11,13,35,1.60
2017,01,11,13,36,1.60
2017,01,11,13,37,1.60
2017,01,11,13,38,1.60
2017,01,11,13,39,1.60
2017,01,11,13,40,1.60
2017,01,11,13,41,1.60
2017,01,11,13,42,1.60
2017,01,11,13,43,1.60
2017,01,11,13,44,1.60
2017,01,11,13,45,1.60
2017,01,11,13,46,1.60
2017,01,11,13,47,1.60
2017,01,11,13,48,1.70
2017,01,11,13,49,1.70
2017,01,11,13,50,1.70
2017,01,11,13,51,1.80
2017,01,11,13,52,1.80
2017,01,11,13,53,1.90
2017,01,11,13,54,2.00
2017,01,11,13,55,2.10
2017,01,11,13,56,2.20
2017,01,11,13,57,2.30
2017,01,11,13,58,2.30
2017,01,11,13,59,2.30
2017,01,11,14,00,2.40
2017,01,11,14,01,2.40
2017,01,11,14,02,2.40
2017,01,11,14,03,2.40
2017,01,11,14,04,2.40
2017,01,11,14,05,2.40
2017,01,11,14,06,2.50
2017,01,11,14,07,2.50
2017,01,11,14,08,2.60
2017,01,11,14,09,2.60
2017,01,11,14,10,2.60
2017,01,11,14,11,2.60
2017,01,11,14,12,2.70
2017,01,11,14,13,2.60
2017,01,11,14,14,2.60
2017,01,11,14,15,2.60
2017,01,11,14,16,2.60
2017,01,11,14,17,2.60
2017,01,11,14,18,2.50
2017,01,11,14,19,2.50
2017,01,11,14,20,2.50
2017,01,11,14,21,2.50
2017,01,11,14,22,2.40
2017,01,11,14,23,2.40
2017,01,11,14,24,2.40
2017,01,11,14,25,2.30
2017,01,11,14,26,2.20
2017,01,11,14,27,2.10
2017,01,11,14,28,2.10
2017,01,11,14,29,2.10
2017,01,11,14,30,2.10
2017,01,11,14,31,2.10
2017,01,11,14,32,2.10
2017,01,11,14,33,2.10
2017,01,11,14,34,2.10
2017,01,11,14,35,2.10
2017,01,11,14,36,2.10
2017,01,11,14,37,2.20
2017,01,11,14,38,2.20
2017,01,11,14,39,2.20
2017,01,11,14,40,2.20
2017,01,11,14,41,2.20
2017,01,11,14,42,2.20
2017,01,11,14,43,2.20
2017,01,11,14,44,2.20
2017,01,11,14,45,2.10
2017,01,11,14,46,2.10
2017,01,11,14,47,2.10
2017,01,11,14,48,2.10
2017,01,11,14,49,2.10
2017,01,11,14,50,2.10
2017,01,11,14,51,2.10
2017,01,11,14,52,2.10
2017,01,11,14,53,2.10
2017,01,11,14,54,2.10
2017,01,11,14,55,2.00
2017,01,11,14,56,2.00
2017,01,11,14,57,2.00
2017,01,11,14,58,2.00
2017,01,11,14,59,2.00
2017,01,11,15,00,2.00
2017,01,11,15,01,2.00
2017,01,11,15,02,2.00
2017,01,11,15,03,2.00
2017,01,11,15,04,2.00
2017,01,11,15,05,2.00
2017,01,11,15,06,2.00
2017,01,11,15,07,2.00
2017,01,11,15,08,2.00
2017,01,11,15,09,2.00
2017,01,11,15,10,2.00
2017,01,11,15,11,2.00
2017,01,11,15,12,2.00
2017,01,11,15,13,1.90
2017,01,11,15,14,1.90
2017,01,11,15,15,1.90
2017,01,11,15,16,1.90
2017,01,11,15,17,1.90
2017,01,11,15,18,1.90
2017,01,11,15,19,1.90
2017,01,11,15,20,1.90
2017,01,11,15,21,2.00
2017,01,11,15,22,2.00
2017,01,11,15,23,1.90
2017,01,11,15,24,1.90
2017,01,11,15,25,1.80
2017,01,11,15,26,1.70
2017,01,11,15,27,1.60
2017,01,11,15,28,1.50
2017,01,11,15,29,1.30
2017,01,11,15,30,1.20
2017,01,11,15,31,1.20
2017,01,11,15,32,1.10
2017,01,11,15,33,1.00
2017,01,11,15,34,0.90
2017,01,11,15,35,0.90
2017,01,11,15,36,0.80
2017,01,11,15,37,0.80
2017,01,11,15,38,0.70
2017,01,11,15,39,0.70
2017,01,11,15,40,0.70
2017,01,11,15,41,0.70
2017,01,11,15,42,0.60
2017,01,11,15,43,0.60
2017,01,11,15,44,0.60
2017,01,11,15,45,0.50
2017,01,11,15,46,0.50
2017,01,11,15,47,0.50
2017,01,11,15,48,0.40
2017,01,11,15,49,0.40
2017,01,11,15,50,0.30
2017,01,11,15,51,0.30
2017,01,11,15,52,0.20
2017,01,11,15,53,0.10
2017,01,11,15,54,-0.10
2017,01,11,15,55,-0.20
2017,01,11,15,56,-0.40
2017,01,11,15,57,-0.50
2017,01,11,15,58,-0.70
2017,01,11,15,59,-0.80
2017,01,11,16,00,-0.90
2017,01,11,16,01,-1.00
2017,01,11,16,02,-1.10
2017,01,11,16,03,-1.20
2017,01,11,16,04,-1.30
2017,01,11,16,05,-1.30
2017,01,11,16,06,-1.40
2017,01,11,16,07,-1.40
2017,01,11,16,08,-1.50
2017,01,11,16,09,-1.60
2017,01,11,16,10,-1.70
2017,01,11,16,11,-1.70
2017,01,11,16,12,-1.80
2017,01,11,16,13,-1.80
2017,01,11,16,14,-1.90
2017,01,11,16,15,-2.00
2017,01,11,16,16,-2.00
2017,01,11,16,17,-2.10
2017,01,11,16,18,-2.20
2017,01,11,16,19,-2.20
2017,01,11,16,20,-2.20
2017,01,11,16,21,-2.30
2017,01,11,16,22,-2.30
2017,01,11,16,23,-2.30
2017,01,11,16,24,-2.40
2017,01,11,16,25,-2.40
2017,01,11,16,26,-2.50
2017,01,11,16,27,-2.50
2017,01,11,16,28,-2.60
2017,01,11,16,29,-2.60
2017,01,11,16,30,-2.70
2017,01,11,16,31,-2.70
2017,01,11,16,32,-2.70
2017,01,11,16,33,-2.80
2017,01,11,16,34,-2.80
2017,01,11,16,35,-2.90
2017,01,11,16,36,-2.90
2017,01,11,16,37,-2.90
2017,01,11,16,38,-2.90
2017,01,11,16,39,-2.90
2017,01,11,16,40,-2.90
2017,01,11,16,41,-2.90
2017,01,11,16,42,-2.90
2017,01,11,16,43,-2.80
2017,01,11,16,44,-2.80
2017,01,11,16,45,-2.90
2017,01,11,16,46,-2.90
2017,01,11,16,47,-2.90
2017,01,11,16,48,-3.00
2017,01,11,16,49,-3.10
2017,01,11,16,50,-3.20
2017,01,11,16,51,-3.20
2017,01,11,16,52,-3.30
2017,01,11,16,53,-3.40
2017,01,11,16,54,-3.40
2017,01,11,16,55,-3.50
2017,01,11,16,56,-3.50
2017,01,11,16,57,-3.60
2017,01,11,16,58,-3.60
2017,01,11,16,59,-3.60
2017,01,11,17,00,-3.60
2017,01,11,17,01,-3.70
2017,01,11,17,02,-3.60
2017,01,11,17,03,-3.60
2017,01,11,17,04,-3.60
2017,01,11,17,05,-3.60
2017,01,11,17,06,-3.60
2017,01,11,17,07,-3.60
2017,01,11,17,08,-3.60
2017,01,11,17,09,-3.70
2017,01,11,17,10,-3.70
2017,01,11,17,11,-3.70
2017,01,11,17,12,-3.70
2017,01,11,17,13,-3.80
2017,01,11,17,14,-3.80
2017,01,11,17,15,-3.80
2017,01,11,17,16,-3.80
2017,01,11,17,17,-3.90
2017,01,11,17,18,-3.90
2017,01,11,17,19,-3.90
2017,01,11,17,20,-3.90
2017,01,11,17,21,-3.90
2017,01,11,17,22,-3.90
2017,01,11,17,23,-3.90
2017,01,11,17,24,-4.00
2017,01,11,17,25,-4.00
2017,01,11,17,26,-4.00
2017,01,11,17,27,-4.10
2017,01,11,17,28,-4.10
2017,01,11,17,29,-4.20
2017,01,11,17,30,-4.20